GW4438 Weather Reports


time (UTC)temp
F
wind
direction
speed
knots
gust
knots
rain 1hr
in
rain 24hr
in
rain mn
in
humidity
%
barometer
mb
20260906103050 95 82 0.9 3.5 0.00 0.00 0.00 37 1016.4
20260906101502 94 317 0.9 5.2 0.00 0.00 0.00 37 1016.6
20260906100019 94 67 0.9 3.5 0.00 0.00 0.00 38 1016.5
20260906094533 93 89 2.6 5.2 0.00 0.00 0.00 37 1016.5
20260906093045 92 62 1.7 5.2 0.00 0.00 0.00 37 1016.7
20260906091559 93 86 1.7 7.0 0.00 0.00 0.00 39 1016.7
20260906090012 92 21 1.7 6.1 0.00 0.00 0.00 38 1016.9
20260906084531 92 67 1.7 7.0 0.00 0.00 0.00 39 1016.9
20260906083040 92 98 0.9 5.2 0.00 0.00 0.00 32 1016.9
20260906081557 91 80 0.9 5.2 0.00 0.00 0.00 33 1016.9
20260906080004 90 184 0.0 2.6 0.00 0.00 0.00 33 1016.9
20260906074520 91 107 0.9 4.3 0.00 0.00 0.00 33 1016.9
20260906073029 89 94 0.0 3.5 0.00 0.00 0.00 34 1016.8
20260906071545 88 84 0.9 3.5 0.00 0.00 0.00 34 1016.7
20260906070059 87 70 0.9 3.5 0.00 0.00 0.00 35 1016.7
20260906064512 86 95 0.0 1.7 0.00 0.00 0.00 35 1016.5
20260906063025 86 46 0.9 2.6 0.00 0.00 0.00 36 1016.4
20260906061538 86 60 0.0 1.7 0.00 0.00 0.00 37 1016.2
20260906060052 86 286 0.0 0.0 0.00 0.00 0.00 37 1016.1
20260906054504 83 286 0.0 0.0 0.00 0.00 0.00 40 1016.0
20260906053022 81 286 0.0 0.0 0.00 0.00 0.00 40 1016.0
20260906051534 79 286 0.0 0.0 0.00 0.00 0.00 42 1015.9
20260906050052 76 285 0.0 0.0 0.00 0.00 0.00 43 1016.0
20260906044502 73 286 0.0 0.9 0.00 0.00 0.00 45 1016.0
20260906043018 72 285 0.0 0.0 0.00 0.00 0.00 46 1015.8
20260906041536 72 285 0.0 0.9 0.00 0.00 0.00 45 1015.5
20260906040049 73 286 0.0 0.9 0.00 0.00 0.00 44 1015.5
20260906034600 72 285 0.0 0.9 0.00 0.00 0.00 44 1015.4
20260906033033 71 285 0.0 0.9 0.00 0.00 0.00 46 1015.3
20260906031531 71 285 0.0 0.0 0.00 0.00 0.00 46 1015.3
20260906030053 71 285 0.0 0.0 0.00 0.00 0.00 46 1015.2
20260906024508 71 286 0.0 0.9 0.00 0.00 0.00 47 1014.9
20260906023024 71 286 0.0 0.9 0.00 0.00 0.00 46 1014.9
20260906021539 71 285 0.0 0.0 0.00 0.00 0.00 46 1015.0
20260906014508 71 286 0.0 0.9 0.00 0.00 0.00 46 1015.0
20260906013025 72 285 0.0 0.9 0.00 0.00 0.00 46 1015.1
20260906011544 72 285 0.0 0.9 0.00 0.00 0.00 46 1015.2
20260906010059 72 285 0.0 0.0 0.00 0.00 0.00 45 1015.2
20260906004513 72 285 0.0 0.9 0.00 0.00 0.00 47 1015.2
20260906003012 72 285 0.0 0.0 0.00 0.00 0.00 47 1015.2
20260906001529 72 285 0.0 0.9 0.00 0.00 0.00 46 1015.3
20260906000047 73 286 0.0 0.9 0.00 0.00 0.00 45 1015.2
20260905234603 74 285 0.0 0.0 0.00 0.00 0.00 44 1015.3
20260905233014 74 286 0.0 0.9 0.00 0.00 0.00 44 1015.4
20260905231551 74 285 0.0 0.9 0.00 0.00 0.00 43 1015.6
20260905230005 74 285 0.9 1.7 0.00 0.00 0.00 42 1015.8
20260905224532 74 285 0.0 0.9 0.00 0.00 0.00 42 1015.9
20260905223039 74 285 0.0 0.9 0.00 0.00 0.00 42 1015.9
20260905221602 75 285 0.0 0.0 0.00 0.00 0.00 42 1016.0
20260905220010 76 285 0.0 1.7 0.00 0.00 0.00 41 1015.9
20260905214528 76 306 0.0 2.6 0.00 0.00 0.00 40 1015.8
20260905213050 77 306 0.9 2.6 0.00 0.00 0.00 41 1016.0
20260905211502 77 296 0.0 0.0 0.00 0.00 0.00 40 1016.0
20260905210043 79 296 0.0 0.9 0.00 0.00 0.00 38 1016.0
20260905204558 79 304 0.0 2.6 0.00 0.00 0.00 39 1016.0
20260905203004 78 176 0.0 0.9 0.00 0.00 0.00 40 1016.0
20260905201516 79 176 0.0 0.0 0.00 0.00 0.00 39 1015.8
20260905200011 81 176 0.0 2.6 0.00 0.00 0.00 38 1015.9
20260905194513 81 121 0.0 1.7 0.00 0.00 0.00 38 1016.0
20260905193028 81 295 0.9 3.5 0.00 0.00 0.00 37 1016.0
20260905191534 81 316 1.7 3.5 0.00 0.00 0.00 38 1015.9
20260905190047 82 283 0.9 3.5 0.00 0.00 0.00 38 1016.0
20260905184602 82 250 0.9 4.3 0.00 0.00 0.00 38 1016.0
20260905183009 82 236 0.0 2.6 0.00 0.00 0.00 38 1015.9
20260905181523 82 313 0.9 5.2 0.00 0.00 0.00 38 1015.7
20260905180032 82 264 0.0 3.5 0.00 0.00 0.00 38 1015.5
20260905174553 83 240 1.7 3.5 0.00 0.00 0.00 38 1015.5
20260905173100 83 298 0.9 4.3 0.00 0.00 0.00 38 1015.4
20260905171518 84 202 2.6 7.0 0.00 0.00 0.00 38 1015.2
20260905170022 84 46 0.9 6.1 0.00 0.00 0.00 37 1015.1
20260905164537 85 238 1.7 5.2 0.00 0.00 0.00 37 1015.1
20260905163016 87 151 1.7 7.0 0.00 0.00 0.00 35 1015.2
20260905161528 88 251 2.6 7.0 0.00 0.00 0.00 34 1015.3
20260905160109 88 220 3.5 8.7 0.00 0.00 0.00 33 1015.2
20260905154559 88 153 2.6 8.7 0.00 0.00 0.00 32 1015.3
20260905153014 89 180 4.3 9.6 0.00 0.00 0.00 32 1015.3
20260905151518 89 132 2.6 10.4 0.00 0.00 0.00 32 1015.3
20260905150030 89 283 2.6 9.6 0.00 0.00 0.00 32 1015.2
20260905144543 90 203 5.2 8.7 0.00 0.00 0.00 33 1015.2
20260905143052 89 223 5.2 9.6 0.00 0.00 0.00 34 1015.1
20260905141503 89 174 4.3 13.0 0.00 0.00 0.00 34 1015.0
20260905140017 89 34 4.3 12.2 0.00 0.00 0.00 34 1015.1
20260905134536 89 228 4.3 8.7 0.00 0.00 0.00 34 1015.2
20260905133030 90 235 4.3 11.3 0.00 0.00 0.00 34 1015.2
20260905131541 89 201 4.3 11.3 0.00 0.00 0.00 34 1015.4
20260905130033 90 129 2.6 10.4 0.00 0.00 0.00 34 1015.3
20260905124517 89 98 3.5 10.4 0.00 0.00 0.00 34 1015.5
20260905123020 89 165 5.2 12.2 0.00 0.00 0.00 34 1015.5
20260905121534 89 285 4.3 13.0 0.00 0.00 0.00 36 1015.6
20260905120055 89 150 4.3 11.3 0.00 0.00 0.00 36 1015.8
20260905114559 89 250 4.3 11.3 0.00 0.00 0.00 36 1015.8
20260905113011 89 246 5.2 12.2 0.00 0.00 0.00 35 1015.9
20260905111522 89 328 3.5 12.2 0.00 0.00 0.00 36 1015.9
20260905110036 89 245 5.2 12.2 0.00 0.00 0.00 35 1016.1
20260905104552 88 302 4.3 15.6 0.00 0.00 0.00 35 1016.1